Simultaneous Nadir Overpasses (SNOs) Predictions

Prediction of SNOs between GOES-15 and TERRA Satellite Orbit:

Table of predicted SNOs for the next 14.0 days since TLE Epoch: 11/20/2011
Index Date Time (GOES-15) GOES-15 Lat,Lon TERRA Lat,Lon Distance(km) Time Diff (sec)
1 11/21/2011 06:01:02 0.17,-117.08 0.94,-113.36 422.13 80
2 11/21/2011 18:24:59 -0.16,-117.72 0.00,-118.54 93.34 80
3 11/23/2011 18:10:09 -0.17,-119.32 -0.94,-115.64 418.20 80
4 11/24/2011 06:34:13 0.15,-119.50 -0.11,-120.83 151.19 80
5 11/26/2011 06:19:22 0.16,-121.09 0.80,-117.92 360.71 80
6 11/26/2011 18:43:19 -0.14,-121.74 0.13,-123.10 153.89 80
7 11/28/2011 18:28:28 -0.14,-123.33 -0.81,-120.19 357.51 80
8 11/29/2011 06:52:30 0.13,-123.51 -0.28,-125.38 212.79 80
9 12/01/2011 06:37:39 0.13,-125.10 0.69,-122.47 299.34 80
10 12/01/2011 19:01:35 -0.12,-125.76 0.29,-127.64 214.29 80
11 12/03/2011 18:46:44 -0.12,-127.35 -0.70,-124.74 297.39 80




NCC Satellite Simultaneous Nadir Overpasses (SNOs) Prediction Service
